| time (UTC) | temp F | wind direction | speed MPH | gust MPH | rain 1hr in | rain 24hr in | rain mn in | humidity % | barometer mb |
| 20260508135512 | 55 | 191 | 0.0 | 0.0 | 0.00 | 0.18 | 0.00 | 92 | 1015.7 |
| 20260508135008 | 55 | 194 | 0.0 | 0.0 | 0.00 | 0.18 | 0.00 | 92 | 1015.6 |
| 20260508134509 | 55 | 194 | 0.0 | 0.0 | 0.00 | 0.18 | 0.00 | 92 | 1015.6 |
| 20260508134008 | 55 | 213 | 0.0 | 0.0 | 0.00 | 0.18 | 0.00 | 92 | 1015.6 |
| 20260508133508 | 54 | 213 | 0.0 | 0.0 | 0.00 | 0.18 | 0.00 | 92 | 1015.6 |
| 20260508133010 | 54 | 213 | 0.0 | 0.0 | 0.00 | 0.18 | 0.00 | 92 | 1015.5 |
| 20260508132507 | 54 | 213 | 0.0 | 0.0 | 0.00 | 0.18 | 0.00 | 92 | 1015.5 |
| 20260508132012 | 53 | 213 | 0.0 | 0.0 | 0.00 | 0.18 | 0.00 | 92 | 1015.6 |
| 20260508131507 | 53 | 213 | 0.0 | 0.0 | 0.00 | 0.18 | 0.00 | 92 | 1015.5 |
| 20260508131006 | 53 | 213 | 0.0 | 0.0 | 0.00 | 0.18 | 0.00 | 92 | 1015.5 |
| 20260508130506 | 53 | 227 | 0.0 | 0.0 | 0.00 | 0.18 | 0.00 | 92 | 1015.4 |
| 20260508130005 | 52 | 227 | 0.0 | 0.0 | 0.00 | 0.55 | 0.00 | 92 | 1015.4 |
| 20260508125505 | 52 | 227 | 0.0 | 0.0 | 0.00 | 0.55 | 0.00 | 92 | 1015.3 |
| 20260508125008 | 52 | 227 | 0.0 | 0.0 | 0.00 | 0.55 | 0.00 | 92 | 1015.3 |
| 20260508124504 | 52 | 234 | 0.0 | 0.0 | 0.00 | 0.55 | 0.00 | 92 | 1015.1 |
| 20260508124006 | 52 | 234 | 0.0 | 0.0 | 0.00 | 0.55 | 0.00 | 92 | 1015.1 |
| 20260508123502 | 51 | 234 | 0.0 | 0.0 | 0.00 | 0.55 | 0.00 | 92 | 1015.0 |
| 20260508123004 | 51 | 234 | 0.0 | 0.0 | 0.00 | 0.55 | 0.00 | 92 | 1015.0 |
| 20260508122503 | 51 | 234 | 0.0 | 0.0 | 0.00 | 0.55 | 0.00 | 92 | 1014.8 |
| 20260508122001 | 51 | 234 | 0.0 | 0.0 | 0.00 | 0.55 | 0.00 | 91 | 1014.9 |
| 20260508121602 | 51 | 234 | 0.0 | 0.0 | 0.00 | 0.55 | 0.00 | 91 | 1014.8 |
| 20260508121059 | 51 | 234 | 0.0 | 0.0 | 0.00 | 0.55 | 0.00 | 91 | 1014.7 |
| 20260508120602 | 51 | 234 | 0.0 | 0.0 | 0.00 | 0.55 | 0.00 | 91 | 1014.8 |
| 20260508115559 | 50 | 234 | 0.0 | 0.0 | 0.00 | 0.66 | 0.00 | 91 | 1014.7 |
| 20260508115058 | 50 | 234 | 0.0 | 0.0 | 0.00 | 0.66 | 0.00 | 91 | 1014.7 |
| 20260508114606 | 50 | 234 | 0.0 | 0.0 | 0.00 | 0.66 | 0.00 | 91 | 1014.4 |
| 20260508114056 | 50 | 234 | 0.0 | 0.0 | 0.00 | 0.66 | 0.00 | 91 | 1014.4 |
| 20260508113555 | 50 | 234 | 0.0 | 0.0 | 0.00 | 0.66 | 0.00 | 91 | 1014.2 |
| 20260508113105 | 50 | 234 | 0.0 | 0.0 | 0.00 | 0.66 | 0.00 | 91 | 1014.3 |
| 20260508112556 | 50 | 234 | 0.0 | 0.0 | 0.00 | 0.66 | 0.00 | 91 | 1014.1 |
| 20260508112053 | 50 | 234 | 0.0 | 0.0 | 0.00 | 0.66 | 0.00 | 91 | 1014.1 |
| 20260508111558 | 50 | 234 | 0.0 | 0.0 | 0.00 | 0.66 | 0.00 | 91 | 1014.0 |
| 20260508111051 | 50 | 234 | 0.0 | 0.0 | 0.00 | 0.66 | 0.00 | 91 | 1013.9 |
| 20260508110551 | 50 | 234 | 0.0 | 0.0 | 0.00 | 0.66 | 0.00 | 91 | 1013.8 |
| 20260508110050 | 50 | 234 | 0.0 | 0.0 | 0.00 | 0.66 | 0.00 | 91 | 1013.7 |
| 20260508105550 | 50 | 234 | 0.0 | 0.0 | 0.00 | 0.67 | 0.00 | 91 | 1013.6 |
| 20260508105050 | 50 | 234 | 0.0 | 0.0 | 0.00 | 0.67 | 0.00 | 91 | 1013.6 |
| 20260508104552 | 50 | 234 | 0.0 | 0.0 | 0.00 | 0.67 | 0.00 | 91 | 1013.5 |
| 20260508104048 | 50 | 234 | 0.0 | 0.0 | 0.00 | 0.67 | 0.00 | 91 | 1013.4 |
| 20260508103546 | 50 | 234 | 0.0 | 0.0 | 0.00 | 0.67 | 0.00 | 91 | 1013.2 |
| 20260508103046 | 50 | 234 | 0.0 | 0.0 | 0.00 | 0.67 | 0.00 | 91 | 1013.0 |
| 20260508102544 | 51 | 234 | 0.0 | 0.0 | 0.00 | 0.67 | 0.00 | 91 | 1012.9 |
| 20260508102044 | 51 | 234 | 0.0 | 0.0 | 0.00 | 0.67 | 0.00 | 91 | 1012.9 |
| 20260508101547 | 51 | 234 | 0.0 | 0.0 | 0.00 | 0.67 | 0.00 | 91 | 1012.9 |
| 20260508101042 | 51 | 234 | 0.0 | 0.0 | 0.00 | 0.67 | 0.00 | 91 | 1012.9 |
| 20260508100543 | 51 | 234 | 0.0 | 0.0 | 0.00 | 0.67 | 0.00 | 91 | 1012.8 |
| 20260508100040 | 51 | 234 | 0.0 | 0.0 | 0.00 | 0.67 | 0.00 | 91 | 1012.8 |
| 20260508095539 | 51 | 234 | 0.0 | 0.0 | 0.00 | 0.70 | 0.00 | 91 | 1012.8 |
| 20260508095039 | 51 | 234 | 0.0 | 0.0 | 0.00 | 0.70 | 0.00 | 91 | 1012.7 |
| 20260508094539 | 51 | 234 | 0.0 | 0.0 | 0.00 | 0.70 | 0.00 | 91 | 1012.6 |
| 20260508094038 | 52 | 234 | 0.0 | 0.0 | 0.00 | 0.70 | 0.00 | 91 | 1012.5 |
| 20260508093538 | 52 | 234 | 0.0 | 0.0 | 0.00 | 0.70 | 0.00 | 91 | 1012.7 |
| 20260508093038 | 52 | 234 | 0.0 | 0.0 | 0.00 | 0.70 | 0.00 | 91 | 1012.6 |
| 20260508092536 | 52 | 234 | 0.0 | 0.0 | 0.00 | 0.70 | 0.00 | 91 | 1012.6 |
| 20260508092036 | 52 | 234 | 0.0 | 0.0 | 0.00 | 0.70 | 0.00 | 91 | 1012.5 |
| 20260508091602 | 52 | 234 | 0.0 | 0.0 | 0.00 | 0.70 | 0.00 | 91 | 1012.4 |
| 20260508091035 | 52 | 234 | 0.0 | 0.0 | 0.00 | 0.70 | 0.00 | 91 | 1012.4 |
| 20260508090538 | 52 | 234 | 0.0 | 0.0 | 0.00 | 0.70 | 0.00 | 91 | 1012.4 |
| 20260508090033 | 52 | 234 | 0.0 | 0.0 | 0.00 | 0.70 | 0.00 | 91 | 1012.3 |
| 20260508085537 | 52 | 234 | 0.0 | 0.0 | 0.00 | 0.75 | 0.00 | 91 | 1012.4 |
| 20260508085035 | 52 | 234 | 0.0 | 0.0 | 0.00 | 0.75 | 0.00 | 91 | 1012.4 |
| 20260508084533 | 53 | 234 | 0.0 | 0.0 | 0.00 | 0.75 | 0.00 | 91 | 1012.3 |
| 20260508084036 | 53 | 234 | 0.0 | 0.0 | 0.00 | 0.75 | 0.00 | 91 | 1012.2 |
| 20260508083531 | 53 | 234 | 0.0 | 0.0 | 0.00 | 0.75 | 0.00 | 91 | 1012.3 |
| 20260508083035 | 53 | 234 | 0.0 | 0.0 | 0.00 | 0.75 | 0.00 | 91 | 1012.0 |
| 20260508082529 | 53 | 234 | 0.0 | 0.0 | 0.00 | 0.75 | 0.00 | 91 | 1012.1 |
| 20260508082029 | 53 | 234 | 0.0 | 0.0 | 0.00 | 0.75 | 0.00 | 91 | 1012.2 |
| 20260508081529 | 53 | 234 | 0.0 | 0.0 | 0.00 | 0.75 | 0.00 | 91 | 1012.1 |
| 20260508081027 | 53 | 234 | 0.0 | 0.0 | 0.00 | 0.75 | 0.00 | 91 | 1012.0 |
| 20260508080526 | 53 | 234 | 0.0 | 0.0 | 0.00 | 0.75 | 0.00 | 91 | 1012.0 |
| 20260508080026 | 53 | 234 | 0.0 | 0.0 | 0.00 | 0.75 | 0.00 | 91 | 1011.8 |
| 20260508075526 | 53 | 234 | 0.0 | 0.0 | 0.00 | 0.92 | 0.00 | 91 | 1011.7 |
| 20260508075026 | 53 | 234 | 0.0 | 0.0 | 0.00 | 0.92 | 0.00 | 91 | 1011.7 |
| 20260508074525 | 54 | 234 | 0.0 | 0.0 | 0.00 | 0.92 | 0.00 | 91 | 1011.8 |
| 20260508074025 | 54 | 234 | 0.0 | 0.0 | 0.00 | 0.92 | 0.00 | 91 | 1011.8 |
| 20260508073524 | 54 | 234 | 0.0 | 0.0 | 0.00 | 0.92 | 0.00 | 91 | 1011.7 |
| 20260508073025 | 54 | 234 | 0.0 | 0.0 | 0.00 | 0.92 | 0.00 | 91 | 1011.7 |
| 20260508072523 | 54 | 234 | 0.0 | 0.0 | 0.00 | 0.92 | 0.00 | 91 | 1011.5 |
| 20260508072023 | 54 | 234 | 0.0 | 0.0 | 0.00 | 0.92 | 0.00 | 91 | 1011.5 |
| 20260508071524 | 54 | 234 | 0.0 | 0.0 | 0.00 | 0.92 | 0.00 | 91 | 1011.5 |
| 20260508071025 | 54 | 234 | 0.0 | 0.0 | 0.00 | 0.92 | 0.00 | 91 | 1011.5 |
| 20260508070525 | 54 | 234 | 0.0 | 0.0 | 0.00 | 0.92 | 0.00 | 91 | 1011.4 |
| 20260508070021 | 54 | 234 | 0.0 | 0.0 | 0.00 | 0.92 | 0.00 | 91 | 1011.5 |
| 20260508065519 | 54 | 234 | 0.0 | 0.0 | 0.00 | 1.43 | 0.00 | 91 | 1011.4 |
| 20260508065019 | 55 | 234 | 0.0 | 0.0 | 0.00 | 1.43 | 0.00 | 91 | 1011.4 |
| 20260508064529 | 55 | 234 | 0.0 | 0.0 | 0.00 | 1.43 | 0.00 | 90 | 1011.4 |
| 20260508064020 | 55 | 234 | 0.0 | 0.0 | 0.00 | 1.43 | 0.00 | 91 | 1011.3 |
| 20260508063521 | 55 | 234 | 0.0 | 0.0 | 0.00 | 1.43 | 0.00 | 91 | 1011.4 |
| 20260508063018 | 55 | 234 | 0.0 | 0.0 | 0.00 | 1.43 | 0.00 | 91 | 1011.4 |
| 20260508062521 | 55 | 234 | 0.0 | 0.0 | 0.00 | 1.43 | 0.00 | 91 | 1011.5 |
| 20260508062017 | 55 | 234 | 0.0 | 0.0 | 0.00 | 1.43 | 0.00 | 91 | 1011.6 |
| 20260508061516 | 55 | 234 | 0.0 | 0.0 | 0.00 | 1.43 | 0.00 | 91 | 1011.7 |
| 20260508061016 | 56 | 234 | 0.0 | 0.0 | 0.00 | 1.43 | 0.00 | 91 | 1011.6 |
| 20260508060518 | 56 | 234 | 0.0 | 0.0 | 0.00 | 1.43 | 0.00 | 91 | 1011.5 |
| 20260508060014 | 56 | 234 | 0.0 | 0.0 | 0.00 | 1.43 | 0.00 | 91 | 1011.6 |
| 20260508055514 | 56 | 234 | 0.0 | 0.0 | 0.00 | 1.50 | 0.00 | 91 | 1011.7 |
| 20260508055014 | 56 | 234 | 0.0 | 0.0 | 0.00 | 1.50 | 0.00 | 91 | 1011.7 |
| 20260508054513 | 56 | 234 | 0.0 | 0.0 | 0.00 | 1.50 | 0.00 | 91 | 1011.7 |
| 20260508054012 | 56 | 234 | 0.0 | 0.0 | 0.00 | 1.50 | 0.00 | 91 | 1011.5 |
| 20260508053514 | 56 | 234 | 0.0 | 0.0 | 0.00 | 1.50 | 0.00 | 91 | 1011.5 |
| 20260508053012 | 56 | 234 | 0.0 | 0.0 | 0.00 | 1.50 | 0.00 | 91 | 1011.3 |
| 20260508052512 | 56 | 234 | 0.0 | 0.0 | 0.00 | 1.50 | 0.00 | 91 | 1011.4 |
| 20260508052013 | 56 | 234 | 0.0 | 0.0 | 0.00 | 1.50 | 0.00 | 91 | 1011.5 |
| 20260508051511 | 56 | 234 | 0.0 | 0.0 | 0.00 | 1.50 | 0.00 | 91 | 1011.4 |
| 20260508051009 | 56 | 234 | 0.0 | 0.0 | 0.00 | 1.50 | 0.00 | 90 | 1011.3 |
| 20260508050509 | 57 | 234 | 0.0 | 0.0 | 0.00 | 1.50 | 0.00 | 90 | 1011.3 |
| 20260508050010 | 57 | 234 | 0.0 | 0.0 | 0.00 | 1.50 | 0.00 | 90 | 1011.3 |
| 20260508045508 | 57 | 234 | 0.0 | 0.0 | 0.00 | 1.50 | 0.00 | 91 | 1011.3 |
| 20260508045109 | 57 | 234 | 0.0 | 0.0 | 0.00 | 1.50 | 0.00 | 91 | 1011.3 |
| 20260508044507 | 57 | 234 | 0.0 | 0.0 | 0.00 | 1.50 | 0.00 | 91 | 1011.3 |
| 20260508044006 | 57 | 234 | 0.0 | 0.0 | 0.00 | 1.50 | 0.00 | 90 | 1011.3 |
| 20260508043505 | 57 | 234 | 0.0 | 0.0 | 0.00 | 1.50 | 0.00 | 90 | 1011.0 |
| 20260508043006 | 57 | 234 | 0.0 | 0.0 | 0.00 | 1.50 | 0.00 | 90 | 1011.0 |
| 20260508042505 | 57 | 234 | 0.0 | 0.0 | 0.00 | 1.50 | 0.00 | 90 | 1011.1 |
| 20260508042008 | 57 | 234 | 0.0 | 0.0 | 0.00 | 1.50 | 0.00 | 90 | 1011.1 |
| 20260508041508 | 57 | 234 | 0.0 | 0.0 | 0.00 | 1.50 | 0.00 | 90 | 1011.0 |
| 20260508041003 | 57 | 234 | 0.0 | 0.0 | 0.00 | 1.50 | 0.00 | 90 | 1011.0 |
| 20260508040502 | 57 | 234 | 0.0 | 0.0 | 0.00 | 1.50 | 0.00 | 90 | 1010.8 |
| 20260508040002 | 57 | 234 | 0.0 | 0.0 | 0.00 | 1.54 | 1.50 | 90 | 1010.8 |
| 20260508035502 | 57 | 234 | 0.0 | 0.0 | 0.00 | 1.54 | 1.50 | 90 | 1010.9 |
| 20260508035004 | 57 | 234 | 0.0 | 0.0 | 0.00 | 1.54 | 1.50 | 90 | 1010.9 |
| 20260508034502 | 57 | 234 | 0.0 | 0.0 | 0.00 | 1.54 | 1.50 | 90 | 1010.8 |
| 20260508034002 | 57 | 234 | 0.0 | 0.0 | 0.00 | 1.54 | 1.50 | 90 | 1010.7 |
| 20260508033501 | 57 | 234 | 0.0 | 0.0 | 0.00 | 1.54 | 1.50 | 90 | 1010.8 |
| 20260508033004 | 57 | 234 | 0.0 | 0.0 | 0.00 | 1.54 | 1.50 | 90 | 1010.8 |
| 20260508032502 | 57 | 234 | 0.0 | 0.0 | 0.00 | 1.54 | 1.50 | 90 | 1010.8 |
| 20260508032002 | 57 | 234 | 0.0 | 0.0 | 0.00 | 1.54 | 1.50 | 90 | 1011.0 |
| 20260508031605 | 57 | 234 | 0.0 | 0.0 | 0.00 | 1.54 | 1.50 | 90 | 1010.8 |
| 20260508031059 | 58 | 234 | 0.0 | 0.0 | 0.00 | 1.54 | 1.50 | 90 | 1010.6 |
| 20260508030559 | 58 | 234 | 0.0 | 0.0 | 0.00 | 1.54 | 1.50 | 90 | 1010.8 |
| 20260508030111 | 58 | 234 | 0.0 | 0.0 | 0.00 | 1.54 | 1.50 | 90 | 1010.7 |
| 20260508025558 | 58 | 234 | 0.0 | 0.0 | 0.00 | 1.86 | 1.50 | 90 | 1010.7 |
| 20260508025057 | 58 | 234 | 0.0 | 0.0 | 0.00 | 1.86 | 1.50 | 90 | 1010.5 |
| 20260508024602 | 58 | 234 | 0.0 | 0.0 | 0.00 | 1.86 | 1.50 | 90 | 1010.6 |
| 20260508024056 | 58 | 234 | 0.0 | 0.0 | 0.00 | 1.86 | 1.50 | 90 | 1010.4 |
| 20260508023556 | 58 | 234 | 0.0 | 0.0 | 0.00 | 1.86 | 1.50 | 90 | 1010.4 |
| 20260508023056 | 58 | 234 | 0.0 | 0.0 | 0.00 | 1.86 | 1.50 | 90 | 1010.5 |
| 20260508022554 | 58 | 234 | 0.0 | 0.0 | 0.00 | 1.86 | 1.50 | 90 | 1010.4 |
| 20260508022054 | 58 | 234 | 0.0 | 0.0 | 0.00 | 1.86 | 1.50 | 90 | 1010.4 |
| 20260508021554 | 58 | 234 | 0.0 | 0.0 | 0.00 | 1.86 | 1.50 | 89 | 1010.2 |
| 20260508021051 | 58 | 234 | 0.0 | 0.0 | 0.00 | 1.86 | 1.50 | 89 | 1010.0 |
| 20260508020550 | 58 | 234 | 0.0 | 0.0 | 0.00 | 1.86 | 1.50 | 89 | 1010.0 |
| 20260508015549 | 59 | 234 | 0.0 | 0.0 | 0.00 | 1.98 | 1.50 | 89 | 1009.8 |
| 20260508015049 | 59 | 234 | 0.0 | 0.0 | 0.00 | 1.98 | 1.50 | 89 | 1009.7 |
| 20260508014549 | 59 | 234 | 0.0 | 0.0 | 0.00 | 1.98 | 1.50 | 89 | 1009.7 |
| 20260508014050 | 59 | 234 | 0.0 | 0.0 | 0.00 | 1.98 | 1.50 | 89 | 1009.4 |
| 20260508013549 | 59 | 234 | 0.0 | 0.0 | 0.00 | 1.98 | 1.50 | 89 | 1009.3 |
| 20260508013048 | 59 | 234 | 0.0 | 0.0 | 0.00 | 1.98 | 1.50 | 89 | 1009.3 |
| 20260508012548 | 59 | 234 | 0.0 | 0.0 | 0.00 | 1.98 | 1.50 | 89 | 1009.3 |
| 20260508012048 | 59 | 234 | 0.0 | 0.0 | 0.00 | 1.98 | 1.50 | 89 | 1009.2 |
| 20260508011550 | 59 | 234 | 0.0 | 0.0 | 0.00 | 1.98 | 1.50 | 89 | 1009.0 |
| 20260508011046 | 59 | 234 | 0.0 | 0.0 | 0.00 | 1.98 | 1.50 | 89 | 1008.9 |
| 20260508010546 | 59 | 234 | 0.0 | 0.0 | 0.00 | 1.98 | 1.50 | 89 | 1009.1 |
| 20260508010058 | 59 | 234 | 0.0 | 0.0 | 0.00 | 1.98 | 1.50 | 89 | 1009.2 |
| 20260508005545 | 60 | 234 | 0.0 | 0.0 | 0.00 | 2.12 | 1.50 | 89 | 1009.0 |
| 20260508005045 | 60 | 234 | 0.0 | 0.0 | 0.01 | 2.12 | 1.50 | 88 | 1008.8 |
| 20260508004544 | 60 | 234 | 0.0 | 0.0 | 0.01 | 2.12 | 1.50 | 88 | 1008.6 |
| 20260508004043 | 60 | 234 | 0.0 | 0.0 | 0.02 | 2.12 | 1.50 | 88 | 1008.4 |
| 20260508003543 | 60 | 234 | 0.0 | 0.0 | 0.03 | 2.12 | 1.50 | 88 | 1008.3 |
| 20260508003044 | 60 | 234 | 0.0 | 0.0 | 0.05 | 2.12 | 1.50 | 87 | 1008.3 |
| 20260508002543 | 60 | 234 | 0.0 | 0.0 | 0.08 | 2.12 | 1.50 | 88 | 1008.3 |
| 20260508002042 | 60 | 234 | 0.0 | 0.0 | 0.12 | 2.12 | 1.50 | 87 | 1008.2 |
| 20260508001544 | 60 | 234 | 0.0 | 0.0 | 0.14 | 2.12 | 1.50 | 87 | 1007.9 |
| 20260508001040 | 61 | 234 | 0.0 | 0.0 | 0.14 | 2.12 | 1.50 | 87 | 1007.8 |
| 20260508000540 | 61 | 225 | 0.0 | 0.0 | 0.14 | 2.12 | 1.50 | 86 | 1007.7 |
| 20260508000045 | 61 | 225 | 0.0 | 0.0 | 0.14 | 2.12 | 1.50 | 86 | 1007.6 |
| 20260507235538 | 62 | 221 | 0.0 | 0.0 | 0.14 | 2.12 | 1.50 | 85 | 1007.0 |
| 20260507235037 | 62 | 254 | 0.0 | 0.0 | 0.13 | 2.11 | 1.49 | 85 | 1006.8 |
| 20260507234536 | 62 | 254 | 0.0 | 0.0 | 0.13 | 2.11 | 1.49 | 84 | 1006.5 |
| 20260507234034 | 63 | 252 | 0.0 | 0.0 | 0.12 | 2.10 | 1.48 | 83 | 1006.8 |
| 20260507233534 | 63 | 251 | 0.0 | 0.0 | 0.11 | 2.09 | 1.47 | 82 | 1006.5 |
| 20260507233039 | 64 | 238 | 0.0 | 0.0 | 0.09 | 2.06 | 1.45 | 82 | 1006.4 |
| 20260507232532 | 64 | 244 | 0.0 | 0.0 | 0.05 | 2.02 | 1.41 | 81 | 1006.6 |
| 20260507232032 | 65 | 206 | 0.0 | 0.0 | 0.01 | 1.99 | 1.37 | 80 | 1006.6 |
| 20260507231532 | 65 | 248 | 0.0 | 0.0 | 0.00 | 1.98 | 1.36 | 77 | 1006.6 |
| 20260507231032 | 66 | 234 | 0.0 | 0.0 | 0.00 | 1.98 | 1.36 | 76 | 1006.2 |
| 20260507230532 | 67 | 250 | 0.0 | 0.0 | 0.00 | 1.98 | 1.36 | 75 | 1005.8 |
| 20260507230047 | 67 | 259 | 0.0 | 0.0 | 0.00 | 1.98 | 1.36 | 74 | 1005.8 |
| 20260507225531 | 68 | 242 | 0.0 | 0.0 | 0.00 | 1.98 | 1.36 | 73 | 1006.1 |
| 20260507225031 | 69 | 228 | 0.0 | 0.0 | 0.00 | 1.98 | 1.36 | 72 | 1006.0 |
| 20260507224533 | 70 | 247 | 0.0 | 0.0 | 0.00 | 1.98 | 1.36 | 71 | 1005.6 |
| 20260507224031 | 71 | 136 | 0.0 | 0.0 | 0.00 | 1.98 | 1.36 | 70 | 1005.5 |
| 20260507223532 | 72 | 231 | 0.0 | 0.0 | 0.00 | 1.98 | 1.36 | 69 | 1005.2 |
| 20260507223104 | 73 | 209 | 0.0 | 2.0 | 0.00 | 1.98 | 1.36 | 68 | 1005.1 |
| 20260507222530 | 75 | 224 | 0.0 | 2.0 | 0.00 | 1.98 | 1.36 | 69 | 1004.8 |
| 20260507222029 | 75 | 259 | 0.0 | 3.0 | 0.00 | 1.98 | 1.36 | 71 | 1004.5 |
| 20260507221531 | 76 | 225 | 0.0 | 0.0 | 0.00 | 1.98 | 1.36 | 74 | 1004.7 |
| 20260507221028 | 76 | 269 | 0.0 | 0.0 | 0.00 | 1.98 | 1.36 | 73 | 1004.1 |
| 20260507220529 | 76 | 269 | 0.0 | 0.0 | 0.00 | 1.98 | 1.36 | 73 | 1003.9 |
| 20260507220028 | 76 | 269 | 0.0 | 0.0 | 0.00 | 1.98 | 1.36 | 73 | 1003.9 |
| 20260507215528 | 76 | 168 | 0.0 | 0.0 | 0.00 | 1.98 | 1.36 | 72 | 1004.0 |
| 20260507215027 | 76 | 210 | 0.0 | 0.0 | 0.00 | 1.98 | 1.36 | 72 | 1003.7 |
| 20260507214528 | 76 | 184 | 0.0 | 0.0 | 0.00 | 1.98 | 1.36 | 73 | 1003.8 |
| 20260507214028 | 76 | 178 | 0.0 | 0.0 | 0.00 | 1.98 | 1.36 | 73 | 1003.7 |
| 20260507213529 | 76 | 148 | 0.0 | 0.0 | 0.00 | 1.98 | 1.36 | 73 | 1003.6 |
| 20260507213028 | 76 | 154 | 0.0 | 0.0 | 0.00 | 1.98 | 1.36 | 73 | 1003.5 |
| 20260507212527 | 76 | 154 | 0.0 | 0.0 | 0.00 | 1.98 | 1.36 | 72 | 1003.5 |
| 20260507212026 | 76 | 154 | 0.0 | 0.0 | 0.00 | 1.98 | 1.36 | 72 | 1003.6 |
| 20260507211527 | 76 | 153 | 0.0 | 0.0 | 0.00 | 1.98 | 1.36 | 71 | 1003.7 |
| 20260507211025 | 77 | 238 | 0.0 | 0.0 | 0.00 | 1.98 | 1.36 | 71 | 1003.6 |
| 20260507210525 | 77 | 188 | 0.0 | 0.0 | 0.00 | 1.98 | 1.36 | 72 | 1003.7 |
| 20260507210035 | 77 | 188 | 0.0 | 0.0 | 0.00 | 1.98 | 1.36 | 71 | 1003.7 |
| 20260507205531 | 77 | 186 | 0.0 | 0.0 | 0.00 | 1.98 | 1.36 | 71 | 1003.9 |
| 20260507205028 | 77 | 115 | 0.0 | 0.0 | 0.00 | 1.98 | 1.36 | 71 | 1003.7 |
| 20260507204532 | 77 | 115 | 0.0 | 0.0 | 0.00 | 1.98 | 1.36 | 70 | 1003.7 |
| 20260507204024 | 77 | 266 | 0.0 | 0.0 | 0.00 | 1.98 | 1.36 | 71 | 1003.8 |
| 20260507203526 | 77 | 139 | 0.0 | 0.0 | 0.00 | 1.98 | 1.36 | 70 | 1003.8 |
| 20260507203032 | 77 | 250 | 0.0 | 0.0 | 0.00 | 1.98 | 1.36 | 73 | 1003.9 |
| 20260507202520 | 76 | 250 | 0.0 | 0.0 | 0.00 | 1.98 | 1.36 | 72 | 1004.0 |
| 20260507202023 | 76 | 248 | 0.0 | 0.0 | 0.00 | 1.98 | 1.36 | 75 | 1003.9 |
| 20260507201518 | 75 | 248 | 0.0 | 0.0 | 0.00 | 1.98 | 1.36 | 79 | 1003.9 |
| 20260507201020 | 75 | 248 | 0.0 | 0.0 | 0.00 | 1.98 | 1.36 | 80 | 1004.0 |
| 20260507200513 | 74 | 247 | 0.0 | 0.0 | 0.00 | 1.98 | 1.36 | 81 | 1004.0 |
| 20260507200024 | 74 | 247 | 0.0 | 0.0 | 0.00 | 1.98 | 1.36 | 86 | 1004.0 |
| 20260507195511 | 73 | 232 | 0.0 | 0.0 | 0.00 | 1.98 | 1.36 | 88 | 1004.2 |
| 20260507195011 | 73 | 186 | 0.0 | 0.0 | 0.00 | 1.98 | 1.36 | 89 | 1004.2 |
| 20260507194509 | 73 | 186 | 0.0 | 0.0 | 0.00 | 1.98 | 1.36 | 89 | 1004.4 |
| 20260507194007 | 73 | 251 | 0.0 | 0.0 | 0.00 | 1.98 | 1.36 | 89 | 1004.5 |
| 20260507193506 | 72 | 247 | 0.0 | 0.0 | 0.00 | 1.98 | 1.36 | 91 | 1004.9 |
| 20260507193018 | 72 | 247 | 0.0 | 0.0 | 0.00 | 1.98 | 1.36 | 92 | 1004.8 |
| 20260507192506 | 72 | 171 | 0.0 | 0.0 | 0.00 | 1.98 | 1.36 | 93 | 1004.8 |
| 20260507192003 | 71 | 171 | 0.0 | 0.0 | 0.00 | 1.98 | 1.36 | 92 | 1004.9 |
| 20260507191502 | 71 | 171 | 0.0 | 0.0 | 0.00 | 1.98 | 1.36 | 93 | 1004.9 |
| 20260507191101 | 71 | 253 | 0.0 | 0.0 | 0.00 | 1.98 | 1.36 | 93 | 1005.0 |
| 20260507190559 | 70 | 253 | 0.0 | 0.0 | 0.00 | 1.98 | 1.36 | 93 | 1005.1 |
| 20260507190059 | 70 | 253 | 0.0 | 0.0 | 0.00 | 1.98 | 1.36 | 93 | 1005.1 |
| 20260507185557 | 70 | 255 | 0.0 | 0.0 | 0.00 | 2.04 | 1.36 | 93 | 1005.1 |
| 20260507185057 | 70 | 248 | 0.0 | 0.0 | 0.00 | 2.04 | 1.36 | 94 | 1005.0 |
| 20260507184556 | 70 | 248 | 0.0 | 0.0 | 0.00 | 2.04 | 1.36 | 93 | 1005.0 |
| 20260507184055 | 70 | 210 | 0.0 | 0.0 | 0.00 | 2.04 | 1.36 | 94 | 1005.0 |
| 20260507183556 | 70 | 210 | 0.0 | 0.0 | 0.00 | 2.04 | 1.36 | 93 | 1005.1 |
| 20260507183056 | 69 | 236 | 0.0 | 0.0 | 0.00 | 2.04 | 1.36 | 93 | 1005.0 |
| 20260507182554 | 69 | 236 | 0.0 | 1.0 | 0.00 | 2.04 | 1.36 | 93 | 1005.0 |
| 20260507182054 | 69 | 166 | 0.0 | 1.0 | 0.00 | 2.04 | 1.36 | 93 | 1005.0 |
| 20260507181558 | 69 | 197 | 0.0 | 0.0 | 0.00 | 2.04 | 1.36 | 94 | 1004.8 |
| 20260507181053 | 69 | 197 | 0.0 | 0.0 | 0.00 | 2.04 | 1.36 | 93 | 1004.9 |
| 20260507180551 | 68 | 178 | 0.0 | 0.0 | 0.00 | 2.04 | 1.36 | 93 | 1005.0 |
| 20260507180051 | 68 | 178 | 0.0 | 0.0 | 0.00 | 2.04 | 1.36 | 93 | 1005.3 |
| 20260507175550 | 68 | 178 | 0.0 | 0.0 | 0.00 | 2.04 | 1.36 | 93 | 1005.2 |
| 20260507175050 | 68 | 209 | 0.0 | 0.0 | 0.00 | 2.04 | 1.36 | 93 | 1005.4 |
| 20260507174556 | 68 | 209 | 0.0 | 0.0 | 0.00 | 2.04 | 1.36 | 93 | 1005.4 |
| 20260507174048 | 68 | 209 | 0.0 | 0.0 | 0.00 | 2.04 | 1.36 | 93 | 1005.6 |
| 20260507173548 | 68 | 209 | 0.0 | 0.0 | 0.00 | 2.04 | 1.36 | 93 | 1005.7 |
| 20260507173054 | 68 | 209 | 0.0 | 0.0 | 0.00 | 2.04 | 1.36 | 93 | 1005.7 |
| 20260507172553 | 68 | 209 | 0.0 | 0.0 | 0.00 | 2.04 | 1.36 | 93 | 1005.7 |
| 20260507172049 | 68 | 208 | 0.0 | 0.0 | 0.00 | 2.04 | 1.36 | 93 | 1005.3 |
| 20260507171559 | 68 | 208 | 0.0 | 0.0 | 0.00 | 2.04 | 1.36 | 93 | 1005.6 |
| 20260507171047 | 68 | 208 | 0.0 | 0.0 | 0.00 | 2.04 | 1.36 | 93 | 1005.7 |
| 20260507170549 | 68 | 208 | 0.0 | 0.0 | 0.00 | 2.04 | 1.36 | 93 | 1005.8 |
| 20260507170050 | 67 | 190 | 0.0 | 0.0 | 0.00 | 2.04 | 1.36 | 93 | 1005.8 |
| 20260507165546 | 67 | 168 | 0.0 | 0.0 | 0.00 | 2.04 | 1.36 | 93 | 1005.6 |
| 20260507165045 | 67 | 168 | 0.0 | 0.0 | 0.00 | 2.04 | 1.36 | 93 | 1005.7 |
| 20260507164546 | 67 | 168 | 0.0 | 0.0 | 0.00 | 2.04 | 1.36 | 93 | 1005.7 |
| 20260507164046 | 67 | 168 | 0.0 | 0.0 | 0.00 | 2.04 | 1.36 | 93 | 1006.0 |
| 20260507163544 | 67 | 168 | 0.0 | 0.0 | 0.00 | 2.04 | 1.36 | 93 | 1006.2 |
| 20260507163045 | 67 | 168 | 0.0 | 0.0 | 0.00 | 2.04 | 1.36 | 93 | 1006.5 |
| 20260507162545 | 67 | 168 | 0.0 | 0.0 | 0.00 | 2.04 | 1.36 | 93 | 1006.6 |
| 20260507162047 | 67 | 168 | 0.0 | 0.0 | 0.00 | 2.04 | 1.36 | 93 | 1006.5 |
| 20260507161552 | 67 | 168 | 0.0 | 0.0 | 0.00 | 2.04 | 1.36 | 93 | 1006.3 |
| 20260507161043 | 67 | 168 | 0.0 | 0.0 | 0.00 | 2.04 | 1.36 | 93 | 1006.1 |
| 20260507160543 | 67 | 168 | 0.0 | 0.0 | 0.00 | 2.04 | 1.36 | 93 | 1006.2 |
| 20260507160044 | 67 | 168 | 0.0 | 0.0 | 0.00 | 2.04 | 1.36 | 93 | 1006.1 |
| 20260507155542 | 67 | 168 | 0.0 | 0.0 | 0.00 | 2.04 | 1.36 | 93 | 1005.8 |
| 20260507155042 | 67 | 162 | 0.0 | 0.0 | 0.00 | 2.04 | 1.36 | 93 | 1005.5 |
| 20260507154544 | 66 | 162 | 0.0 | 0.0 | 0.00 | 2.04 | 1.36 | 93 | 1005.2 |
| 20260507154042 | 66 | 162 | 0.0 | 0.0 | 0.01 | 2.04 | 1.36 | 93 | 1005.1 |
| 20260507153540 | 66 | 162 | 0.0 | 0.0 | 0.01 | 2.04 | 1.36 | 93 | 1004.9 |
| 20260507153043 | 66 | 162 | 0.0 | 0.0 | 0.01 | 2.04 | 1.36 | 93 | 1004.9 |
| 20260507152539 | 66 | 162 | 0.0 | 0.0 | 0.01 | 2.04 | 1.36 | 93 | 1005.1 |
| 20260507152039 | 66 | 162 | 0.0 | 0.0 | 0.01 | 2.04 | 1.36 | 93 | 1005.2 |
| 20260507151539 | 66 | 162 | 0.0 | 0.0 | 0.01 | 2.04 | 1.36 | 93 | 1005.2 |
| 20260507151037 | 66 | 162 | 0.0 | 0.0 | 0.02 | 2.04 | 1.36 | 93 | 1005.4 |
| 20260507150537 | 66 | 162 | 0.0 | 0.0 | 0.03 | 2.04 | 1.36 | 93 | 1005.6 |
| 20260507150040 | 66 | 175 | 0.0 | 0.0 | 0.03 | 2.04 | 1.36 | 93 | 1006.1 |
| 20260507145538 | 66 | 175 | 0.0 | 0.0 | 0.03 | 2.04 | 1.36 | 93 | 1006.4 |
| 20260507145034 | 66 | 175 | 0.0 | 0.0 | 0.03 | 2.04 | 1.36 | 93 | 1006.7 |
| 20260507144534 | 66 | 175 | 0.0 | 0.0 | 0.03 | 2.04 | 1.36 | 93 | 1006.8 |
| 20260507144032 | 65 | 175 | 0.0 | 0.0 | 0.02 | 2.02 | 1.35 | 93 | 1006.7 |
| 20260507143531 | 65 | 175 | 0.0 | 0.0 | 0.02 | 2.02 | 1.35 | 93 | 1006.8 |
| 20260507143029 | 65 | 175 | 0.0 | 0.0 | 0.02 | 2.02 | 1.35 | 93 | 1006.9 |
| 20260507142528 | 65 | 175 | 0.0 | 0.0 | 0.02 | 2.02 | 1.35 | 93 | 1006.9 |
| 20260507142026 | 65 | 175 | 0.0 | 0.0 | 0.02 | 2.02 | 1.35 | 93 | 1006.8 |
| 20260507141526 | 65 | 175 | 0.0 | 0.0 | 0.02 | 2.02 | 1.35 | 93 | 1006.8 |
| 20260507141026 | 65 | 175 | 0.0 | 0.0 | 0.01 | 2.02 | 1.34 | 93 | 1006.7 |
| 20260507140528 | 65 | 175 | 0.0 | 0.0 | 0.01 | 2.00 | 1.33 | 93 | 1006.8 |
| 20260507140025 | 65 | 175 | 0.0 | 0.0 | 0.01 | 2.00 | 1.33 | 93 | 1006.8 |